Location: Atlantic Beach
(40.5890°N, 73.7290°W)
Time: 08:15:28
(UTC+00:00)

N. Korean satellite - Pass Details

Date: 23 January 2021
Orbit: 451 x 502 km, 97.2° (Epoch: 04 March)

Event Time Altitude Azimuth Distance (km) Brightness Sun altitude
Rises 10:19:41 0° 12° (NNE) 2,512 10.2 -21.2°
Reaches altitude 10° 10:21:45 10° 13° (NNE) 1,622 9.3 -20.8°
Maximum altitude 10:25:14 83° 103° (ESE) 468 6.4 -20.2°
Drops below altitude 10° 10:28:38 10° 190° (S) 1,587 9.1 -19.5°
Sets 10:30:38 0° 191° (SSW) 2,451 10.1 -19.2°
